| time (UTC) | temp F | wind direction | speed MPH | gust MPH | rain 1hr in | rain 24hr in | rain mn in | humidity % | barometer mb |
| 20260505101804 | 35 | 182 | 0.0 | 5.0 | 0.02 | 1.12 | 0.56 | 97 | 1008.9 |
| 20260505101304 | 34 | 71 | 3.0 | 5.0 | 0.02 | 1.12 | 0.56 | 97 | 1004.2 |
| 20260505100803 | 35 | 53 | 2.0 | 3.0 | 0.02 | 1.12 | 0.56 | 95 | 1004.5 |
| 20260505100305 | 33 | 70 | 2.0 | 5.0 | 0.02 | 1.12 | 0.56 | 97 | 1004.3 |
| 20260505095804 | 34 | 56 | 3.0 | 5.0 | 0.03 | 1.12 | 0.56 | 96 | 1004.3 |
| 20260505095305 | 33 | 30 | 3.0 | 5.0 | 0.02 | 1.11 | 0.55 | 97 | 1004.2 |
| 20260505094306 | 34 | 55 | 2.0 | 5.0 | 0.02 | 1.11 | 0.55 | 95 | 1004.6 |
| 20260505093807 | 33 | 42 | 2.0 | 3.0 | 0.01 | 1.10 | 0.54 | 97 | 1004.6 |
| 20260505092306 | 33 | 76 | 3.0 | 6.0 | 0.01 | 1.10 | 0.54 | 96 | 1004.7 |
| 20260505091806 | 34 | 65 | 2.0 | 5.0 | 0.01 | 1.10 | 0.54 | 95 | 1004.8 |
| 20260505091305 | 33 | 50 | 3.0 | 6.0 | 0.01 | 1.10 | 0.54 | 97 | 1005.0 |
| 20260505090806 | 33 | 40 | 1.0 | 2.0 | 0.01 | 1.10 | 0.54 | 96 | 1010.7 |
| 20260505090306 | 34 | 28 | 1.0 | 3.0 | 0.01 | 1.10 | 0.54 | 95 | 1005.1 |
| 20260505085806 | 33 | 78 | 2.0 | 3.0 | 0.09 | 1.09 | 0.53 | 97 | 1013.5 |
| 20260505085306 | 34 | 67 | 1.0 | 2.0 | 0.09 | 1.09 | 0.53 | 96 | 1005.3 |
| 20260505084807 | 33 | 113 | 1.0 | 2.0 | 0.09 | 1.09 | 0.53 | 96 | 1005.4 |
| 20260505084307 | 34 | 79 | 1.0 | 3.0 | 0.09 | 1.09 | 0.53 | 96 | 1005.5 |
| 20260505083806 | 32 | 74 | 1.0 | 3.0 | 0.09 | 1.09 | 0.53 | 96 | 1014.0 |
| 20260505083307 | 33 | 42 | 2.0 | 3.0 | 0.09 | 1.09 | 0.53 | 96 | 1005.3 |
| 20260505082306 | 32 | 46 | 0.0 | 3.0 | 0.09 | 1.09 | 0.53 | 96 | 1005.6 |
| 20260505081806 | 32 | 51 | 1.0 | 2.0 | 0.09 | 1.09 | 0.53 | 96 | 1013.7 |
| 20260505081306 | 33 | 120 | 0.0 | 1.0 | 0.09 | 1.09 | 0.53 | 96 | 1005.6 |
| 20260505080806 | 32 | 66 | 1.0 | 3.0 | 0.09 | 1.09 | 0.53 | 96 | 1005.7 |
| 20260505080306 | 32 | 82 | 2.0 | 3.0 | 0.09 | 1.09 | 0.53 | 96 | 1005.8 |
| 20260505075805 | 32 | 126 | 0.0 | 1.0 | 0.23 | 1.00 | 0.44 | 96 | 1005.8 |
| 20260505075306 | 32 | 76 | 1.0 | 1.0 | 0.23 | 1.00 | 0.44 | 95 | 1005.8 |
| 20260505074806 | 32 | 137 | 0.0 | 1.0 | 0.23 | 1.00 | 0.44 | 96 | 1011.1 |
| 20260505074306 | 32 | 70 | 0.0 | 1.0 | 0.23 | 1.00 | 0.44 | 95 | 1005.7 |
| 20260505073806 | 32 | 127 | 0.0 | 1.0 | 0.23 | 1.00 | 0.44 | 96 | 1010.6 |
| 20260505073306 | 32 | 151 | 0.0 | 1.0 | 0.23 | 1.00 | 0.44 | 95 | 1005.9 |
| 20260505072806 | 33 | 120 | 0.0 | 2.0 | 0.23 | 1.00 | 0.44 | 96 | 1005.7 |
| 20260505072306 | 33 | 64 | 1.0 | 2.0 | 0.23 | 1.00 | 0.44 | 96 | 1012.0 |
| 20260505071806 | 32 | 53 | 2.0 | 3.0 | 0.23 | 1.00 | 0.44 | 95 | 1006.1 |
| 20260505070306 | 33 | 60 | 1.0 | 2.0 | 0.24 | 1.00 | 0.44 | 96 | 1006.0 |
| 20260505065306 | 33 | 112 | 0.0 | 1.0 | 0.15 | 0.77 | 0.21 | 96 | 1006.2 |
| 20260505064806 | 34 | 72 | 1.0 | 1.0 | 0.15 | 0.77 | 0.21 | 96 | 1006.2 |
| 20260505063806 | 34 | 73 | 0.0 | 1.0 | 0.17 | 0.77 | 0.21 | 95 | 1014.0 |
| 20260505063306 | 32 | 120 | 0.0 | 2.0 | 0.18 | 0.77 | 0.21 | 89 | 1006.1 |
| 20260505062806 | 33 | 189 | 0.0 | 5.0 | 0.18 | 0.77 | 0.21 | 95 | 1006.3 |
| 20260505062307 | 35 | 163 | 3.0 | 5.0 | 0.18 | 0.77 | 0.21 | 95 | 1006.3 |
| 20260505061806 | 34 | 195 | 2.0 | 5.0 | 0.19 | 0.77 | 0.21 | 95 | 1010.6 |
| 20260505061306 | 34 | 178 | 1.0 | 3.0 | 0.19 | 0.77 | 0.21 | 95 | 1006.4 |
| 20260505060806 | 34 | 136 | 1.0 | 2.0 | 0.19 | 0.77 | 0.21 | 95 | 1006.1 |
| 20260505060306 | 34 | 125 | 1.0 | 2.0 | 0.18 | 0.76 | 0.20 | 95 | 1012.2 |
| 20260505055806 | 34 | 161 | 1.0 | 3.0 | 0.07 | 0.63 | 0.07 | 87 | 1006.2 |
| 20260505055305 | 35 | 159 | 2.0 | 5.0 | 0.07 | 0.62 | 0.06 | 95 | 1014.3 |
| 20260505054805 | 37 | 156 | 2.0 | 6.0 | 0.06 | 0.62 | 0.06 | 84 | 1006.1 |
| 20260505054306 | 37 | 153 | 2.0 | 5.0 | 0.06 | 0.60 | 0.04 | 95 | 1014.6 |
| 20260505053806 | 38 | 200 | 1.0 | 2.0 | 0.06 | 0.60 | 0.04 | 88 | 1006.0 |
| 20260505053306 | 37 | 88 | 1.0 | 2.0 | 0.06 | 0.59 | 0.03 | 95 | 1010.9 |
| 20260505052806 | 37 | 61 | 0.0 | 1.0 | 0.06 | 0.59 | 0.03 | 95 | 1006.2 |
| 20260505051306 | 38 | 237 | 0.0 | 1.0 | 0.06 | 0.58 | 0.02 | 95 | 1006.2 |
| 20260505050306 | 36 | 114 | 0.0 | 3.0 | 0.07 | 0.58 | 0.02 | 86 | 1006.3 |
| 20260505040806 | 39 | 59 | 3.0 | 3.0 | 0.04 | 0.52 | 0.52 | 92 | 1013.3 |
| 20260505040305 | 38 | 64 | 2.0 | 5.0 | 0.05 | 0.52 | 0.52 | 93 | 1006.1 |
| 20260505035806 | 39 | 23 | 1.0 | 6.0 | 0.05 | 0.50 | 0.50 | 92 | 1007.5 |
| 20260505035306 | 37 | 61 | 3.0 | 6.0 | 0.05 | 0.50 | 0.50 | 94 | 1006.3 |
| 20260505034305 | 37 | 47 | 3.0 | 5.0 | 0.05 | 0.50 | 0.50 | 93 | 1006.2 |
| 20260505033806 | 38 | 59 | 3.0 | 5.0 | 0.05 | 0.49 | 0.49 | 92 | 1007.1 |
| 20260505033306 | 39 | 46 | 2.0 | 5.0 | 0.06 | 0.49 | 0.49 | 91 | 1007.7 |
| 20260505032806 | 38 | 58 | 3.0 | 5.0 | 0.06 | 0.49 | 0.49 | 92 | 1006.4 |
| 20260505032306 | 39 | 60 | 3.0 | 6.0 | 0.06 | 0.48 | 0.48 | 92 | 1007.4 |
| 20260505031806 | 37 | 77 | 2.0 | 3.0 | 0.07 | 0.48 | 0.48 | 93 | 1008.2 |
| 20260505031306 | 38 | 69 | 0.0 | 5.0 | 0.07 | 0.48 | 0.48 | 92 | 1006.9 |
| 20260505030305 | 38 | 55 | 3.0 | 5.0 | 0.08 | 0.47 | 0.47 | 92 | 1006.5 |
| 20260505024306 | 40 | 76 | 3.0 | 6.0 | 0.13 | 0.44 | 0.44 | 93 | 1007.4 |
| 20260505023806 | 38 | 73 | 3.0 | 5.0 | 0.17 | 0.44 | 0.44 | 92 | 1006.2 |
| 20260505023305 | 39 | 84 | 3.0 | 5.0 | 0.20 | 0.44 | 0.44 | 92 | 1006.9 |
| 20260505022305 | 39 | 95 | 1.0 | 5.0 | 0.26 | 0.42 | 0.42 | 92 | 1006.7 |
| 20260505021805 | 40 | 68 | 3.0 | 6.0 | 0.26 | 0.41 | 0.41 | 92 | 1007.4 |
| 20260505021305 | 38 | 53 | 5.0 | 6.0 | 0.26 | 0.40 | 0.40 | 79 | 1006.1 |
| 20260505020306 | 38 | 222 | 1.0 | 3.0 | 0.25 | 0.38 | 0.38 | 80 | 1005.9 |
| 20260505015806 | 40 | 15 | 1.0 | 5.0 | 0.24 | 0.36 | 0.36 | 91 | 1006.7 |
| 20260505015306 | 38 | 79 | 2.0 | 5.0 | 0.23 | 0.36 | 0.36 | 89 | 1005.5 |
| 20260505014805 | 39 | 312 | 2.0 | 16.0 | 0.21 | 0.34 | 0.34 | 77 | 1006.1 |
| 20260505014307 | 40 | 65 | 7.0 | 16.0 | 0.19 | 0.32 | 0.32 | 87 | 1007.1 |
| 20260505013805 | 39 | 63 | 6.0 | 17.0 | 0.14 | 0.27 | 0.27 | 86 | 1005.9 |
| 20260505013306 | 40 | 96 | 6.0 | 17.0 | 0.10 | 0.23 | 0.23 | 85 | 1006.6 |
| 20260505012306 | 42 | 37 | 6.0 | 22.0 | 0.03 | 0.16 | 0.16 | 80 | 1006.2 |
| 20260505011805 | 42 | 66 | 17.0 | 22.0 | 0.02 | 0.15 | 0.15 | 78 | 1004.7 |
| 20260505011305 | 44 | 67 | 6.0 | 21.0 | 0.01 | 0.14 | 0.14 | 73 | 1004.3 |
| 20260505010805 | 46 | 62 | 13.0 | 20.0 | 0.01 | 0.14 | 0.14 | 68 | 1006.3 |
| 20260505010306 | 46 | 73 | 9.0 | 20.0 | 0.01 | 0.14 | 0.14 | 68 | 1005.1 |
| 20260505005805 | 49 | 47 | 5.0 | 10.0 | 0.00 | 0.13 | 0.13 | 73 | 1005.9 |
| 20260505005306 | 47 | 250 | 2.0 | 5.0 | 0.00 | 0.13 | 0.13 | 74 | 1004.8 |
| 20260505004805 | 49 | 210 | 2.0 | 8.0 | 0.00 | 0.13 | 0.13 | 74 | 1005.7 |
| 20260505004305 | 48 | 164 | 4.0 | 7.0 | 0.00 | 0.13 | 0.13 | 71 | 1004.6 |
| 20260505003805 | 58 | 231 | 2.0 | 3.0 | 0.00 | 0.13 | 0.13 | 67 | 1005.3 |
| 20260505003306 | 47 | 206 | 3.0 | 5.0 | 0.00 | 0.13 | 0.13 | 68 | 1004.1 |
| 20260505002306 | 58 | 17 | 1.0 | 5.0 | 0.00 | 0.13 | 0.13 | 49 | 1005.7 |
| 20260505001805 | 58 | 29 | 1.0 | 6.0 | 0.00 | 0.13 | 0.13 | 66 | 1004.6 |
| 20260505001305 | 58 | 22 | 3.0 | 6.0 | 0.00 | 0.13 | 0.13 | 49 | 1005.4 |
| 20260505000805 | 58 | 14 | 3.0 | 6.0 | 0.00 | 0.13 | 0.13 | 65 | 1004.4 |
| 20260505000306 | 58 | 219 | 2.0 | 5.0 | 0.00 | 0.13 | 0.13 | 65 | 1005.4 |
| 20260504235804 | 49 | 354 | 2.0 | 5.0 | 0.00 | 0.13 | 0.13 | 67 | 1004.6 |
| 20260504234806 | 49 | 23 | 2.0 | 5.0 | 0.00 | 0.13 | 0.13 | 65 | 1004.4 |
| 20260504234305 | 50 | 276 | 2.0 | 7.0 | 0.00 | 0.13 | 0.13 | 68 | 1005.5 |
| 20260504233305 | 49 | 192 | 2.0 | 7.0 | 0.00 | 0.13 | 0.13 | 68 | 1005.1 |
| 20260504232805 | 51 | 146 | 3.0 | 5.0 | 0.00 | 0.13 | 0.13 | 68 | 1005.8 |
| 20260504232306 | 49 | 62 | 3.0 | 7.0 | 0.00 | 0.13 | 0.13 | 69 | 1004.8 |
| 20260504231806 | 50 | 22 | 2.0 | 6.0 | 0.00 | 0.13 | 0.13 | 53 | 1005.8 |
| 20260504231306 | 48 | 25 | 2.0 | 5.0 | 0.00 | 0.13 | 0.13 | 68 | 1004.7 |
| 20260504225805 | 48 | 40 | 3.0 | 9.0 | 0.02 | 0.13 | 0.13 | 71 | 1004.8 |
| 20260504225305 | 49 | 5 | 3.0 | 8.0 | 0.02 | 0.13 | 0.13 | 74 | 1006.7 |
| 20260504224805 | 47 | 19 | 2.0 | 6.0 | 0.02 | 0.13 | 0.13 | 73 | 1005.6 |
| 20260504224305 | 48 | 64 | 2.0 | 6.0 | 0.02 | 0.13 | 0.13 | 75 | 1007.0 |
| 20260504223305 | 47 | 212 | 3.0 | 6.0 | 0.02 | 0.13 | 0.13 | 77 | 1006.5 |
| 20260504222306 | 45 | 44 | 3.0 | 8.0 | 0.02 | 0.13 | 0.13 | 77 | 1005.8 |
| 20260504221806 | 46 | 65 | 5.0 | 8.0 | 0.02 | 0.13 | 0.13 | 79 | 1007.1 |
| 20260504221305 | 45 | 43 | 5.0 | 8.0 | 0.02 | 0.13 | 0.13 | 80 | 1005.8 |
| 20260504220805 | 46 | 27 | 1.0 | 8.0 | 0.02 | 0.13 | 0.13 | 84 | 1007.1 |
| 20260504220305 | 44 | 162 | 6.0 | 12.0 | 0.02 | 0.13 | 0.13 | 71 | 1006.1 |
| 20260504215805 | 46 | 176 | 8.0 | 16.0 | 0.05 | 0.11 | 0.11 | 80 | 1008.0 |
| 20260504215305 | 46 | 163 | 6.0 | 12.0 | 0.05 | 0.11 | 0.11 | 73 | 1005.7 |
| 20260504214804 | 48 | 137 | 3.0 | 10.0 | 0.05 | 0.11 | 0.11 | 70 | 1005.6 |
| 20260504214305 | 48 | 148 | 6.0 | 12.0 | 0.05 | 0.11 | 0.11 | 65 | 1005.2 |
| 20260504213806 | 50 | 234 | 2.0 | 6.0 | 0.05 | 0.11 | 0.11 | 60 | 1005.3 |
| 20260504213306 | 49 | 181 | 2.0 | 6.0 | 0.05 | 0.11 | 0.11 | 58 | 1010.4 |
| 20260504212804 | 49 | 103 | 1.0 | 5.0 | 0.05 | 0.11 | 0.11 | 65 | 1005.2 |
| 20260504212306 | 48 | 210 | 2.0 | 3.0 | 0.05 | 0.11 | 0.11 | 58 | 1005.1 |
| 20260504211804 | 48 | 226 | 2.0 | 5.0 | 0.05 | 0.11 | 0.11 | 64 | 1005.4 |
| 20260504211305 | 49 | 162 | 2.0 | 6.0 | 0.05 | 0.11 | 0.11 | 56 | 1013.6 |
| 20260504210805 | 49 | 202 | 2.0 | 6.0 | 0.05 | 0.11 | 0.11 | 57 | 1005.4 |
| 20260504210305 | 49 | 355 | 2.0 | 9.0 | 0.05 | 0.11 | 0.11 | 55 | 1012.5 |
| 20260504205805 | 51 | 197 | 5.0 | 9.0 | 0.04 | 0.06 | 0.06 | 66 | 1005.5 |
| 20260504205305 | 51 | 179 | 1.0 | 6.0 | 0.04 | 0.06 | 0.06 | 58 | 1005.4 |
| 20260504204805 | 48 | 114 | 2.0 | 9.0 | 0.04 | 0.06 | 0.06 | 61 | 1010.3 |
| 20260504204305 | 49 | 280 | 2.0 | 6.0 | 0.04 | 0.06 | 0.06 | 62 | 1005.7 |
| 20260504203805 | 47 | 201 | 3.0 | 7.0 | 0.04 | 0.06 | 0.06 | 73 | 1005.8 |
| 20260504203305 | 48 | 215 | 2.0 | 7.0 | 0.04 | 0.06 | 0.06 | 62 | 1007.0 |
| 20260504202805 | 48 | 172 | 3.0 | 7.0 | 0.04 | 0.06 | 0.06 | 68 | 1008.0 |
| 20260504202305 | 47 | 63 | 1.0 | 5.0 | 0.04 | 0.06 | 0.06 | 68 | 1006.9 |
| 20260504201805 | 47 | 31 | 3.0 | 8.0 | 0.05 | 0.06 | 0.06 | 68 | 1007.7 |
| 20260504201305 | 48 | 181 | 5.0 | 8.0 | 0.05 | 0.06 | 0.06 | 68 | 1006.6 |
| 20260504200804 | 48 | 314 | 3.0 | 7.0 | 0.05 | 0.06 | 0.06 | 72 | 1007.8 |
| 20260504200305 | 47 | 186 | 4.0 | 13.0 | 0.05 | 0.06 | 0.06 | 70 | 1006.8 |
| 20260504195805 | 46 | 134 | 7.0 | 14.0 | 0.01 | 0.02 | 0.02 | 69 | 1006.5 |
| 20260504195305 | 47 | 74 | 9.0 | 14.0 | 0.01 | 0.01 | 0.01 | 64 | 1006.3 |
| 20260504194805 | 48 | 183 | 9.0 | 20.0 | 0.01 | 0.01 | 0.01 | 60 | 1006.2 |
| 20260504194305 | 48 | 156 | 6.0 | 17.0 | 0.01 | 0.01 | 0.01 | 57 | 1006.3 |
| 20260504193805 | 48 | 171 | 6.0 | 21.0 | 0.01 | 0.01 | 0.01 | 73 | 1005.9 |
| 20260504193305 | 48 | 165 | 12.0 | 23.0 | 0.01 | 0.01 | 0.01 | 58 | 1010.8 |
| 20260504192304 | 50 | 166 | 17.0 | 22.0 | 0.01 | 0.01 | 0.01 | 52 | 1005.5 |
| 20260504191805 | 52 | 202 | 7.0 | 16.0 | 0.00 | 0.00 | 0.00 | 45 | 1005.4 |
| 20260504191304 | 53 | 170 | 7.0 | 16.0 | 0.00 | 0.00 | 0.00 | 45 | 1005.5 |
| 20260504190805 | 55 | 157 | 5.0 | 12.0 | 0.00 | 0.00 | 0.00 | 44 | 1013.2 |
| 20260504190304 | 53 | 182 | 3.0 | 9.0 | 0.00 | 0.00 | 0.00 | 45 | 1005.4 |
| 20260504185805 | 59 | 214 | 2.0 | 5.0 | 0.00 | 0.00 | 0.00 | 45 | 1013.0 |
| 20260504185305 | 58 | 253 | 3.0 | 9.0 | 0.00 | 0.00 | 0.00 | 46 | 1005.5 |
| 20260504184805 | 58 | 28 | 6.0 | 9.0 | 0.00 | 0.00 | 0.00 | 46 | 1005.4 |
| 20260504183806 | 58 | 267 | 3.0 | 9.0 | 0.00 | 0.00 | 0.00 | 49 | 1005.6 |
| 20260504183305 | 58 | 21 | 5.0 | 10.0 | 0.00 | 0.00 | 0.00 | 49 | 1005.9 |
| 20260504182805 | 58 | 47 | 6.0 | 12.0 | 0.00 | 0.00 | 0.00 | 52 | 1005.9 |
| 20260504182305 | 58 | 40 | 6.0 | 9.0 | 0.00 | 0.00 | 0.00 | 53 | 1007.4 |
| 20260504181805 | 58 | 18 | 6.0 | 10.0 | 0.00 | 0.00 | 0.00 | 38 | 1008.4 |
| 20260504180804 | 58 | 24 | 6.0 | 13.0 | 0.00 | 0.00 | 0.00 | 57 | 1008.3 |
| 20260504175805 | 54 | 335 | 3.0 | 8.0 | 0.00 | 0.00 | 0.00 | 67 | 1006.9 |
| 20260504175305 | 53 | 9 | 5.0 | 12.0 | 0.00 | 0.00 | 0.00 | 70 | 1015.3 |
| 20260504174804 | 53 | 37 | 6.0 | 9.0 | 0.00 | 0.00 | 0.00 | 49 | 1006.9 |
| 20260504174305 | 43 | 30 | 3.0 | 9.0 | 0.00 | 0.00 | 0.00 | 76 | 1007.1 |
| 20260504173805 | 53 | 18 | 5.0 | 8.0 | 0.00 | 0.00 | 0.00 | 76 | 1007.0 |
| 20260504172805 | 53 | 33 | 5.0 | 9.0 | 0.00 | 0.00 | 0.00 | 60 | 1007.4 |
| 20260504172304 | 53 | 46 | 7.0 | 9.0 | 0.00 | 0.00 | 0.00 | 79 | 1007.4 |
| 20260504171805 | 53 | 37 | 5.0 | 21.0 | 0.00 | 0.00 | 0.00 | 62 | 1007.6 |
| 20260504171304 | 53 | 153 | 20.0 | 21.0 | 0.00 | 0.00 | 0.00 | 83 | 1007.7 |
| 20260504170805 | 53 | 153 | 20.0 | 21.0 | 0.00 | 0.00 | 0.00 | 83 | 1015.4 |
| 20260504170304 | 53 | 147 | 5.0 | 5.0 | 0.00 | 0.00 | 0.00 | 81 | 1009.6 |
| 20260504160305 | 47 | 182 | 4.0 | 8.0 | 0.00 | 0.00 | 0.00 | 58 | 1007.1 |
| 20260504150805 | 42 | 105 | 1.0 | 3.0 | 0.00 | 0.00 | 0.00 | 55 | 1007.8 |
| 20260504150305 | 41 | 194 | 1.0 | 3.0 | 0.00 | 0.00 | 0.00 | 56 | 1011.8 |
| 20260504141304 | 39 | 198 | 2.0 | 5.0 | 0.00 | 0.00 | 0.00 | 61 | 1008.1 |
| 20260504140804 | 38 | 162 | 1.0 | 2.0 | 0.00 | 0.00 | 0.00 | 63 | 1008.1 |
| 20260504140305 | 38 | 194 | 0.0 | 2.0 | 0.00 | 0.00 | 0.00 | 61 | 1008.0 |
| 20260504130804 | 36 | 174 | 1.0 | 3.0 | 0.00 | 0.00 | 0.00 | 67 | 1007.5 |
| 20260504130305 | 36 | 205 | 1.0 | 2.0 | 0.00 | 0.00 | 0.00 | 67 | 1015.1 |
| 20260504120304 | 35 | 23 | 3.0 | 8.0 | 0.00 | 0.00 | 0.00 | 66 | 1007.3 |
| 20260504110304 | 35 | 47 | 2.0 | 5.0 | 0.00 | 0.00 | 0.00 | 67 | 1007.4 |